Regional Weather Roundup
Issued by NWS Newport/Morehead, NC

Home | Current Version | Previous Version | Text Only | Print | Product List | Glossary On
Versions: 1 2 3 4 5 6 7 8 9 10 11 12 13 14 15 16 17 18 19 20 21 22 23 24 25 26 27 28 29 30 31 32 33 34 35 36 37 38 39 40 41 42 43 44 45 46 47 48 49 50
000
ASUS42 KMHX 200224
RWRMHX
WEATHER ROUNDUP FOR EASTERN NORTH CAROLINA
NATIONAL WEATHER SERVICE NEWPORT/MOREHEAD CITY NC
900 PM EST THU JAN 19 2017

NOTE: "FAIR" INDICATES FEW OR NO CLOUDS BELOW 12,000 FEET
WITH NO SIGNIFICANT WEATHER AND/OR OBSTRUCTIONS TO VISIBILITY

NCZ015>017-031-032-045>047-102-103-200300-
NORTH COAST

CITY           SKY/WX    TMP DP  RH WIND       PRES   REMARKS
EDENTON        CLOUDY    45  42  90 CALM      30.05R
ELIZABETH CITY CLOUDY    44  40  85 E6        30.04F
KITTY HAWK     NOT AVBL
MANTEO         FOG       39  39 100 CALM      30.04F VSB 1

$$

NCZ045>047-081-094-103-104-200300-
CENTRAL COAST

CITY           SKY/WX    TMP DP  RH WIND       PRES   REMARKS
FRISCO         CLEAR     45  42  89 E5        30.04F FOG

$$

NCZ095-097-098-100-101-200300-
SOUTHERN COAST

CITY           SKY/WX    TMP DP  RH WIND       PRES   REMARKS
BEAUFORT       MOCLDY    47  43  86 CALM      30.03F
CEDAR ISLAND   NOT AVBL
JACKSONVILLE   PTCLDY    47  45  93 CALM      30.03R
PINEY ISLAND   CLOUDY   N/A N/A N/A CALM      30.03S
WILMINGTON     PTCLDY    47  45  93 CALM      30.02S


$$

NCZ011>013-027>030-043-044-078>080-089-090>093-098-200300-
COASTAL PLAIN

CITY           SKY/WX    TMP DP  RH WIND       PRES   REMARKS
AHOSKIE          N/A     40  38  93 CALM      30.03F
CLINTON        CLOUDY    49  45  87 CALM      30.01F
ELIZABETHTOWN  CLEAR     51  45  80 SE5       30.01S
GOLDSBORO      PTCLDY    47  46  98 E5        30.00S
GREENVILLE     MOCLDY    43  43 100 CALM      30.04S
HAVELOCK       PTCLDY    45  43  93 S3        30.04S
KENANSVILLE    CLOUDY    43  43 100 CALM      30.02S
KINSTON        MOCLDY    43  41  93 CALM      30.03F
NEW BERN       PTCLDY    46  42  86 CALM      30.04S
RICHLANDS      PTCLDY    44  43  96 CALM      30.03S
ROCKY MOUNT    PTCLDY    43  42  97 CALM      30.01F
WASHINGTON     CLOUDY    43  41  93 CALM        N/A
WHITEVILLE     CLOUDY    52  45  77 CALM      30.00S

$$

AMZ130-135-150-152-154-156-158-170-250-252-270-ANZ085-086-088-633-658-670-200300-
MARINE OBSERVATIONS

STATION/POSITION TIME  TEMP    WIND        PRES    WAVE   SWELL
                       AIR SEA DIR/SP/G            HT/PER HT/PER
                 (UTC) (F)     (DEG/KT/KT) (MB)    (FT/S) (FT/S)
CHESAPEAKE LIGHT NOT AVBL
64 E VA BEACH    0150   48 57  360/  4/  6 1017.2    6/11   5/11
DUCK             0200   45 45  100/  4/  4 1016.6
2 E DUCK         0200      45                N/A     4/11   2/11
OREGON INLET     0154   45 49   90/  3/  3 1017.1
13E OREGON INLT  NOT AVBL
HATTERAS CG      0200   47 55   80/  4/  6 1016.8
DIAMOND BUOY     0150   54 76   40/  8/ 14 1016.9    4/10   3/10
CAPE LOOKOUT     0200   57      90/  5/  6 1016.4
BEAUFORT LAB     0200   51 51   CALM  /  1 1015.8
30 SE NEW RVR IN 0208   58 62  110/  6/  8 1016.8
30 SE NEW RVR IN 0213      62                N/A     2/ 9
27 SE WRIGHTSVLE 0208   60 71  100/  6/ 10 1016.3
5 SE WRIGHTSVLE  0108   55     100/  4/  8 1016.2
225 S CAPE HAT   0150   67 71   30/  2/  6 1016.1    6/10   7/10
41 SE CHARLESTON 0150   68 71   70/ 14/ 17 1014.0    3/ 9   2/ 9

$$




USA.gov is the U.S. government's official web portal to all federal, state and local government web resources and services.